Change the Weather History Date:

Friday, February 15, 2013

  Actual Average Record
Temperature  
Mean Temperature 0 °F -  
Max Temperature 10 °F 23 °F 41 °F (2011)
Min Temperature -9 °F 2 °F -34 °F (2004)
Degree Days  
Heating Degree Days 64    
Moisture  
Dew Point -5 °F    
Average Humidity 75    
Maximum Humidity 85    
Minimum Humidity 57    
Precipitation  
Precipitation 0.00 in - - ()
Sea Level Pressure  
Sea Level Pressure 30.14 in    
Wind  
Wind Speed 6 mph (NW)    
Max Wind Speed 14 mph    
Max Gust Speed 21 mph    
Visibility 10 miles    
Events      
Averages and records for this station are not official NWS values.
T = Trace of Precipitation, MM = Missing Value Source: NWS Daily Summary

Daily Weather History Graph

Daily Weather History Graph

Search for Another Location

Airport or City:

Trip Planner

Search our weather history database for the weather conditions in past years. The results will help you decide how hot, cold, wet, or windy it might be!

Date:

Astronomy

Feb. 15, 2013 Rise Set
Actual Time 7:17 AM CST 5:34 PM CST
Civil Twilight 6:45 AM CST 6:06 PM CST
Nautical Twilight 6:09 AM CST 6:42 PM CST
Astronomical Twilight 5:33 AM CST 7:18 PM CST
Moon 9:24 AM CST (2/15) No Moon Set
Length of Visible Light 11h 21m
Length of Day
10h 17m
Waxing Crescent, 30% of the Moon is Illuminated
Feb 15
Waxing Crescent
Feb 17
First Quarter
Feb 25
Full
Mar 4
Last Quarter
Mar 11
New

Hourly Weather History & Observations

Time (CST) Temp. Windchill Dew Point Humidity Pressure Visibility Wind Dir Wind Speed Gust Speed Precip Events Conditions
12:13 AM 6.8 °F -6.9 °F -0.4 °F 72% 30.06 in 10.0 mi WNW 9.2 mph - N/A   Clear
12:33 AM 5.0 °F -8.1 °F -0.4 °F 78% 30.06 in 10.0 mi NW 8.1 mph - N/A   Clear
12:53 AM 5.0 °F -8.1 °F -2.2 °F 72% 30.07 in 10.0 mi NW 8.1 mph - N/A   Clear
1:13 AM 3.2 °F -9.1 °F -2.2 °F 78% 30.07 in 10.0 mi NW 6.9 mph - N/A   Clear
1:33 AM 3.2 °F -9.1 °F -2.2 °F 78% 30.07 in 10.0 mi NW 6.9 mph - N/A   Clear
1:53 AM 1.4 °F -9.9 °F -4.0 °F 78% 30.07 in 10.0 mi NW 5.8 mph - N/A   Clear
2:13 AM 1.4 °F -11.3 °F -4.0 °F 78% 30.08 in 10.0 mi NW 6.9 mph - N/A   Clear
2:33 AM 1.4 °F -9.9 °F -4.0 °F 78% 30.08 in 10.0 mi NW 5.8 mph - N/A   Clear
2:53 AM -0.4 °F -12.0 °F -4.0 °F 85% 30.08 in 10.0 mi NW 5.8 mph - N/A   Clear
3:13 AM -0.4 °F -13.4 °F -5.8 °F 78% 30.08 in 10.0 mi NW 6.9 mph - N/A   Clear
3:33 AM -2.2 °F -12.5 °F -5.8 °F 85% 30.09 in 10.0 mi NW 4.6 mph - N/A   Clear
3:53 AM -2.2 °F -15.6 °F -7.6 °F 78% 30.09 in 10.0 mi NW 6.9 mph - N/A   Clear
4:13 AM -4.0 °F -17.8 °F -7.6 °F 85% 30.10 in 10.0 mi NW 6.9 mph - N/A   Clear
4:33 AM -4.0 °F -16.3 °F -7.6 °F 85% 30.10 in 10.0 mi WNW 5.8 mph - N/A   Clear
4:53 AM -4.0 °F -16.3 °F -7.6 °F 85% 30.11 in 10.0 mi NW 5.8 mph - N/A   Clear
5:13 AM -5.8 °F -18.4 °F -9.4 °F 84% 30.12 in 10.0 mi WNW 5.8 mph - N/A   Clear
5:33 AM -5.8 °F -16.7 °F -9.4 °F 84% 30.12 in 10.0 mi NW 4.6 mph - N/A   Clear
5:53 AM -5.8 °F -16.7 °F -11.2 °F 77% 30.13 in 10.0 mi WNW 4.6 mph - N/A   Clear
6:13 AM -7.6 °F -18.8 °F -11.2 °F 84% 30.13 in 10.0 mi WNW 4.6 mph - N/A   Clear
6:33 AM -7.6 °F -16.5 °F -13.0 °F 77% 30.13 in 10.0 mi WNW 3.5 mph - N/A   Clear
6:53 AM -7.6 °F -18.8 °F -13.0 °F 77% 30.13 in 10.0 mi WNW 4.6 mph - N/A   Clear
7:13 AM -9.4 °F -20.9 °F -14.8 °F 77% 30.14 in 10.0 mi WNW 4.6 mph - N/A   Clear
7:33 AM -9.4 °F -20.9 °F -14.8 °F 77% 30.15 in 10.0 mi WNW 4.6 mph - N/A   Clear
7:53 AM -9.4 °F -18.6 °F -14.8 °F 77% 30.15 in 10.0 mi NW 3.5 mph - N/A   Clear
8:14 AM -7.6 °F -18.8 °F -13.0 °F 77% 30.16 in 10.0 mi NW 4.6 mph - N/A   Clear
8:33 AM -7.6 °F -18.8 °F -11.2 °F 84% 30.16 in 10.0 mi NW 4.6 mph - N/A   Clear
8:53 AM -5.8 °F -16.7 °F -11.2 °F 77% 30.17 in 10.0 mi WNW 4.6 mph - N/A   Clear
9:13 AM -4.0 °F -14.6 °F -9.4 °F 78% 30.17 in 10.0 mi WNW 4.6 mph - N/A   Clear
9:33 AM -2.2 °F -15.6 °F -7.6 °F 78% 30.17 in 10.0 mi WNW 6.9 mph - N/A   Clear
9:53 AM -0.4 °F -13.4 °F -5.8 °F 78% 30.17 in 10.0 mi WNW 6.9 mph - N/A   Clear
10:13 AM -0.4 °F -12.0 °F -5.8 °F 78% 30.17 in 10.0 mi WNW 5.8 mph - N/A   Clear
10:33 AM 3.2 °F -10.3 °F -2.2 °F 78% 30.17 in 10.0 mi NW 8.1 mph - N/A   Scattered Clouds
10:53 AM 5.0 °F -10.0 °F -4.0 °F 66% 30.17 in 10.0 mi NW 10.4 mph - N/A   Scattered Clouds
11:13 AM 6.8 °F -8.6 °F -4.0 °F 61% 30.17 in 10.0 mi NW 11.5 mph 17.3 mph N/A   Clear
11:53 AM 6.8 °F -8.6 °F -4.0 °F 61% 30.18 in 10.0 mi NW 11.5 mph - N/A   Scattered Clouds
12:13 PM 6.8 °F -6.9 °F -4.0 °F 61% 30.18 in 10.0 mi NW 9.2 mph - N/A   Scattered Clouds
12:33 PM 6.8 °F -9.3 °F -2.2 °F 67% 30.17 in 10.0 mi WNW 12.7 mph - N/A   Scattered Clouds
12:54 PM 6.8 °F -10.0 °F -4.0 °F 61% 30.17 in 10.0 mi NW 13.8 mph 17.3 mph N/A   Mostly Cloudy
1:13 PM 8.6 °F -3.7 °F -2.2 °F 62% 30.16 in 10.0 mi WNW 8.1 mph - N/A   Overcast
1:33 PM 8.6 °F -3.7 °F -2.2 °F 62% 30.16 in 10.0 mi WNW 8.1 mph - N/A   Mostly Cloudy
1:53 PM 8.6 °F -5.5 °F -2.2 °F 62% 30.16 in 10.0 mi WNW 10.4 mph - N/A   Scattered Clouds
2:13 PM 8.6 °F -5.5 °F -2.2 °F 62% 30.16 in 10.0 mi WNW 10.4 mph - N/A   Scattered Clouds
2:33 PM 10.4 °F -1.5 °F -2.2 °F 57% 30.15 in 10.0 mi West 8.1 mph - N/A   Scattered Clouds
2:54 PM 8.6 °F -6.3 °F -4.0 °F 57% 30.15 in 10.0 mi WNW 11.5 mph - N/A   Clear
3:13 PM 8.6 °F -4.7 °F -4.0 °F 57% 30.15 in 10.0 mi WNW 9.2 mph - N/A   Scattered Clouds
3:33 PM 8.6 °F -5.5 °F -4.0 °F 57% 30.16 in 10.0 mi NW 10.4 mph 20.7 mph N/A   Scattered Clouds
3:53 PM 8.6 °F -4.7 °F -4.0 °F 57% 30.16 in 10.0 mi NW 9.2 mph - N/A   Scattered Clouds
4:13 PM 8.6 °F -2.6 °F -2.2 °F 62% 30.16 in 10.0 mi WNW 6.9 mph - N/A   Scattered Clouds
4:34 PM 6.8 °F -5.9 °F -2.2 °F 67% 30.16 in 10.0 mi WNW 8.1 mph - N/A   Mostly Cloudy
4:53 PM 6.8 °F -4.8 °F -2.2 °F 67% 30.15 in 10.0 mi WNW 6.9 mph - N/A   Scattered Clouds
5:13 PM 6.8 °F -4.8 °F -2.2 °F 67% 30.15 in 10.0 mi WNW 6.9 mph - N/A   Scattered Clouds
5:33 PM 5.0 °F -4.1 °F -4.0 °F 66% 30.16 in 10.0 mi NW 4.6 mph - N/A   Scattered Clouds
5:53 PM 3.2 °F -6.2 °F -2.2 °F 78% 30.16 in 10.0 mi NW 4.6 mph - N/A   Scattered Clouds
6:13 PM 3.2 °F -4.2 °F -4.0 °F 72% 30.16 in 10.0 mi NW 3.5 mph - N/A   Scattered Clouds
6:33 PM 3.2 °F -4.2 °F -4.0 °F 72% 30.16 in 10.0 mi NW 3.5 mph - N/A   Scattered Clouds
6:53 PM 1.4 °F - -2.2 °F 85% 30.15 in 10.0 mi Calm Calm - N/A   Mostly Cloudy
7:13 PM 1.4 °F - -2.2 °F 85% 30.15 in 10.0 mi Calm Calm - N/A   Overcast
7:33 PM 1.4 °F - -2.2 °F 85% 30.14 in 10.0 mi Calm Calm - N/A   Overcast
7:53 PM 1.4 °F - -2.2 °F 85% 30.14 in 10.0 mi Calm Calm - N/A   Overcast
8:13 PM 1.4 °F - -2.2 °F 85% 30.14 in 10.0 mi Calm Calm - N/A   Overcast
8:33 PM 3.2 °F - -2.2 °F 78% 30.14 in 10.0 mi Calm Calm - N/A   Overcast
8:53 PM 3.2 °F - -2.2 °F 78% 30.14 in 10.0 mi Calm Calm - N/A   Overcast
9:13 PM 1.4 °F - -2.2 °F 85% 30.14 in 10.0 mi Calm Calm - N/A   Overcast
9:33 PM 1.4 °F - -2.2 °F 85% 30.14 in 10.0 mi Calm Calm - N/A   Overcast
9:53 PM 1.4 °F - -2.2 °F 85% 30.13 in 10.0 mi Calm Calm - N/A   Overcast
10:13 PM 1.4 °F - -2.2 °F 85% 30.13 in 10.0 mi Calm Calm - N/A   Overcast
10:33 PM 1.4 °F - -2.2 °F 85% 30.13 in 10.0 mi Calm Calm - N/A   Overcast
10:53 PM 1.4 °F - -2.2 °F 85% 30.13 in 10.0 mi Calm Calm - N/A   Overcast
11:13 PM -0.4 °F - -4.0 °F 85% 30.12 in 10.0 mi Calm Calm - N/A   Mostly Cloudy
11:33 PM -2.2 °F - -5.8 °F 85% 30.12 in 10.0 mi Calm Calm - N/A   Scattered Clouds
11:53 PM -2.2 °F - -5.8 °F 85% 30.12 in 10.0 mi Calm Calm - N/A   Scattered Clouds